Probability
3 1 0 0 0 0 0 0 0 0 0 0 0 0 0 0 0 0 0 0 1 1 2 3 3 3 3 4 4 4 3 4 6 6 6 5 5 5 4 3 3 3 3
3 2 1 1 0 0 0 0 0 0 0 0 0 0 0 0 0 0 0 0 1 1 1 2 3 3 3 4 5 4 3 3 5 6 5 5 4 4 3 3 3 3 3
3 2 2 2 1 0 0 0 0 0 0 0 0 0 0 0 0 0 0 0 0 0 0 1 2 2 2 3 4 4 3 3 3 4 4 4 3 3 3 3 3 3 3
4 3 3 3 1 0 0 0 0 1 0 0 0 0 0 0 0 0 0 0 0 0 0 1 2 2 1 1 2 3 3 3 3 3 3 3 3 3 3 3 3 3 3
5 5 4 3 2 0 0 0 0 0 0 0 0 0 0 0 0 0 0 0 0 0 0 1 2 2 0 0 1 2 3 3 3 3 3 3 3 4 3 3 3 3 3
5 4 3 3 1 0 0 0 0 0 0 0 0 0 0 0 0 0 0 0 0 0 0 1 1 1 0 0 0 1 3 3 3 3 3 3 4 4 4 3 3 3 3
4 3 3 3 1 0 0 0 0 0 0 0 0 0 0 0 0 0 0 0 0 0 0 0 0 0 0 0 0 1 2 3 3 3 3 3 3 4 4 4 3 3 2
3 3 3 3 2 0 0 0 0 0 0 0 0 0 0 0 0 0 0 0 0 0 0 0 0 0 0 0 0 0 1 2 3 3 3 3 3 3 4 5 4 2 1
3 3 3 2 1 0 0 0 0 0 0 0 0 0 0 0 0 0 0 0 0 0 0 0 0 0 0 0 0 0 0 1 3 3 3 3 3 3 4 5 4 2 0
3 3 3 2 1 1 0 0 0 0 0 0 0 0 0 0 0 0 0 0 0 0 0 0 0 0 0 0 0 0 0 1 2 3 3 3 3 3 3 4 4 2 1
3 3 3 3 2 2 1 0 0 0 0 0 0 0 0 0 0 0 0 0 0 0 0 0 0 0 0 0 0 0 0 0 1 2 3 3 3 3 3 3 3 3 2
3 3 3 3 3 3 1 0 0 0 0 0 0 0 0 0 0 0 0 0 0 0 0 0 0 0 0 0 0 0 0 0 0 1 2 2 2 3 3 2 2 3 3
2 2 2 2 2 2 1 0 0 0 0 0 0 0 0 0 0 0 0 0 0 0 0 0 0 0 0 0 0 0 0 0 0 0 1 1 1 1 2 1 1 2 3
1 0 1 1 1 1 1 0 0 0 0 0 0 0 0 0 0 0 0 0 0 0 0 0 0 0 0 0 0 0 0 0 0 0 0 0 0 0 0 0 1 2 3
1 1 1 1 1 1 0 0 0 0 0 0 0 0 0 0 0 0 0 0 0 0 0 0 0 0 0 0 0 0 0 0 0 0 0 0 0 0 0 0 1 2 2
2 2 2 2 2 2 1 0 0 0 0 0 0 0 0 0 0 0 0 0 0 0 0 0 0 0 0 0 0 0 0 0 0 0 0 0 0 0 0 0 0 1 1
1 2 3 3 3 2 1 0 0 0 0 0 0 0 0 0 0 0 0 0 0 0 0 0 0 0 0 0 0 0 0 0 0 0 0 0 0 0 0 0 0 0 0
0 1 1 2 1 1 0 0 0 0 0 0 0 0 0 0 0 0 0 0 0 0 0 0 0 0 0 0 0 0 0 0 0 0 0 0 0 0 0 0 0 0 0
1 1 1 1 0 0 0 0 0 0 0 0 0 0 0 0 0 0 0 0 0 0 0 0 0 0 0 0 0 0 0 0 0 0 0 0 0 0 0 0 0 0 0
4 3 1 0 0 0 0 0 0 1 0 0 0 0 0 0 0 0 0 0 0 0 0 0 0 0 0 0 0 0 0 0 0 0 0 0 0 0 0 0 0 0 0
6 4 2 1 0 0 0 0 0 0 0 0 0 0 0 0 0 0 0 0 0 0 0 0 0 0 0 0 0 0 0 0 0 0 1 1 0 0 0 0 0 0 0
6 5 4 2 1 0 0 0 0 0 0 0 0 0 0 0 0 0 0 0 0 0 0 0 0 0 0 0 0 0 0 0 0 0 1 2 1 0 0 0 0 0 0
6 6 5 4 2 1 0 0 0 0 0 0 0 0 0 0 0 0 0 0 0 0 0 0 0 0 0 0 0 0 0 0 0 0 1 1 1 0 0 0 0 0 0
6 6 6 4 3 2 1 0 0 0 0 0 0 0 0 0 0 0 0 0 0 0 0 0 0 0 0 0 0 0 0 0 1 1 0 0 0 0 0 0 0 0 0
6 6 6 4 3 2 1 0 0 0 0 0 0 0 0 0 0 0 0 0 0 0 0 0 0 0 0 0 0 0 0 0 1 1 0 0 0 0 0 0 0 0 0
5 6 6 4 3 2 1 0 0 0 0 0 0 0 0 0 0 0 0 0 0 0 0 0 0 0 0 0 0 0 0 0 0 1 0 0 0 0 0 0 0 0 0
Wind_Speed
2 2 2 2 2 2 2 2 2 3 3 4 4 5 5 5 5 4 4 10 12 12 12 12 12 12 11 11 10 10 10 9 9 10 10 10 10 9 9 10 10 10 9
2 2 2 3 2 2 2 2 3 3 3 3 4 5 4 4 4 4 4 6 10 11 12 12 12 12 11 10 9 9 10 10 10 10 10 10 10 9 9 9 9 9 9
3 3 2 2 2 2 3 3 4 3 3 3 3 4 3 4 4 4 4 3 4 9 11 12 12 11 11 10 9 9 10 10 10 10 10 10 9 9 9 9 9 9 8
4 3 3 2 3 3 3 2 2 2 2 3 2 2 2 3 4 3 3 3 3 4 7 10 11 11 11 10 9 9 10 9 10 10 9 10 9 9 8 8 9 9 8
4 3 2 2 3 3 3 3 3 2 2 2 1 1 1 2 2 3 3 4 4 4 3 6 8 9 10 10 10 10 10 9 9 9 9 9 9 8 8 8 8 8 8
4 3 2 3 3 3 3 3 3 2 2 2 2 2 1 2 2 2 3 3 3 4 3 3 3 5 9 10 10 9 9 8 8 8 8 8 8 8 7 7 7 7 7
3 3 2 2 3 2 2 3 3 3 2 2 2 2 2 2 3 2 2 2 3 3 3 3 2 3 3 8 8 8 8 7 7 7 7 8 8 7 7 7 6 6 6
3 3 2 2 2 2 2 2 3 2 2 2 2 1 2 2 3 2 2 2 2 2 2 3 3 3 3 3 5 7 6 6 6 6 6 6 6 7 7 7 7 6 6
3 3 3 2 2 2 1 2 2 2 1 2 2 2 1 1 2 2 1 2 2 2 2 2 3 3 4 3 3 5 6 5 4 4 4 4 5 5 5 6 6 6 5
2 2 2 2 2 2 2 1 2 1 1 1 2 2 1 1 1 1 2 1 1 1 1 1 2 3 3 3 4 5 6 6 3 3 3 3 3 4 4 5 5 5 5
1 2 2 1 1 1 1 1 1 1 1 0 1 1 2 2 1 1 1 2 2 1 0 1 1 2 2 2 2 3 5 5 3 3 2 2 2 3 3 3 4 4 4
1 1 1 1 1 1 1 1 1 1 1 1 1 1 1 1 1 1 1 1 1 2 1 0 1 1 1 2 2 4 3 3 4 3 2 2 1 1 2 2 3 3 3
1 1 1 1 1 0 1 1 1 0 1 0 0 0 0 0 1 0 1 1 1 1 1 1 1 1 1 2 1 2 2 2 3 3 2 1 1 1 1 2 2 2 2
0 0 0 0 0 1 0 0 0 0 0 0 1 0 0 1 1 0 0 0 1 2 1 1 1 1 1 1 1 1 1 1 1 2 1 0 1 1 1 2 2 2 3
0 1 0 0 0 0 0 0 0 1 0 0 1 1 1 1 1 0 0 1 1 1 2 1 1 1 1 1 1 1 1 1 1 1 1 1 0 0 0 1 2 3 3
1 1 0 0 0 0 0 0 1 1 0 1 1 1 1 1 1 1 0 0 0 1 2 2 1 1 1 1 1 0 1 1 1 0 0 1 1 1 1 1 1 2 3
1 1 1 1 1 1 0 0 1 1 1 1 1 0 1 0 0 1 1 1 1 0 1 2 1 1 1 1 1 1 1 1 1 1 1 1 1 1 1 1 1 1 2
1 0 0 1 1 1 1 0 1 1 1 1 1 1 1 0 0 0 0 1 1 1 0 2 2 1 1 1 1 1 1 1 1 2 2 2 2 2 2 2 1 1 1
1 0 0 1 1 1 1 1 1 2 2 1 1 1 1 1 0 0 0 1 1 1 0 1 2 1 1 1 1 2 1 1 1 1 3 3 3 3 3 3 2 2 2
1 1 1 1 1 0 1 1 2 2 2 2 1 1 1 1 1 1 0 1 1 1 1 1 2 2 1 1 1 1 2 2 1 1 1 2 3 3 3 4 3 3 3
2 1 1 0 0 0 1 1 2 2 2 2 1 1 1 1 1 1 0 1 1 1 1 1 1 2 2 1 1 1 2 2 2 1 1 1 1 1 2 4 4 4 3
2 1 1 1 0 1 2 2 2 2 3 2 2 1 0 1 0 1 2 2 2 2 2 1 1 2 2 2 1 1 1 2 2 1 1 2 1 2 2 2 3 3 3
1 2 2 1 0 0 1 1 3 2 2 2 2 1 2 1 1 1 2 2 2 3 4 3 3 3 3 2 2 2 2 2 3 2 1 2 1 2 2 2 4 4 4
1 1 1 1 0 1 1 2 3 2 2 1 1 1 1 1 2 1 1 1 1 2 3 2 3 4 4 3 3 3 3 3 3 2 0 2 2 2 2 2 4 5 5
2 1 1 1 0 1 1 1 1 1 1 1 1 1 2 1 4 3 1 1 2 3 4 5 5 5 5 5 3 1 1 1 3 2 1 1 2 2 2 2 3 4 4
2 1 1 1 0 1 0 1 1 1 1 1 1 1 1 2 4 4 1 1 2 3 3 4 4 5 4 4 4 3 3 2 2 2 2 1 1 1 2 2 1 1 2
Wind_Direction
47 56 62 53 36 40 47 30 36 43 34 37 42 49 53 64 74 75 66 65 64 62 62 66 66 66 66 69 73 73 73 73 75 76 74 71 71 68 67 67 63 63 66
57 51 56 51 37 36 32 38 45 44 44 44 43 45 47 56 71 84 88 71 65 62 60 60 63 63 63 66 72 76 76 74 73 74 72 69 69 68 69 68 66 64 66
57 51 45 48 43 39 36 41 43 34 40 50 51 53 51 52 64 75 86 86 74 63 61 59 58 58 58 62 70 76 79 76 72 71 68 67 68 67 68 69 69 66 65
59 56 45 45 46 44 41 52 49 32 32 41 37 36 50 56 61 69 83 85 80 74 62 63 58 55 54 59 68 76 78 78 75 72 69 66 66 66 67 68 68 69 67
49 60 47 53 51 44 34 37 44 29 30 39 46 54 62 75 61 61 65 77 77 82 77 72 65 58 55 60 67 75 75 74 75 73 69 66 64 64 67 66 67 69 67
45 58 56 59 60 56 39 35 31 25 19 22 34 42 52 88 62 56 60 66 75 78 83 84 73 61 58 60 70 73 72 72 75 72 69 65 63 61 62 63 63 66 65
42 59 50 59 64 64 56 50 37 20 13 18 39 19 17 62 62 59 56 59 68 68 74 79 77 70 60 57 62 69 69 70 73 69 67 65 62 59 58 57 60 61 61
33 47 55 61 67 71 54 50 58 28 4 24 42 45 15 8 359 56 59 53 54 56 55 66 70 71 73 64 54 55 57 62 67 69 67 66 62 59 57 56 57 58 60
36 32 33 60 63 77 76 54 69 65 10 350 23 61 74 351 318 341 40 57 52 55 41 52 61 70 77 70 57 42 42 48 54 64 68 67 65 61 57 55 54 54 55
45 36 28 47 60 66 78 54 63 62 72 348 340 4 35 105 90 329 334 21 37 43 35 39 57 69 74 79 67 53 42 29 41 53 61 63 64 64 58 53 51 51 54
52 51 41 41 49 88 103 86 65 48 60 47 13 352 360 20 28 114 313 326 341 334 31 40 59 69 79 84 88 59 45 29 30 37 43 52 63 62 59 55 49 49 53
30 50 64 47 34 57 87 99 110 92 62 24 25 31 35 25 344 5 324 316 315 300 317 63 86 88 66 74 79 66 51 36 29 21 23 23 30 43 48 46 43 46 45
17 7 45 53 23 24 69 91 103 133 127 90 279 10 344 304 307 355 30 317 323 299 342 1 66 113 82 79 82 76 61 32 21 14 11 22 20 14 16 22 25 34 30
205 102 54 91 32 346 22 87 84 21 105 250 303 274 235 274 295 82 140 73 339 322 341 314 343 46 56 102 98 87 99 14 353 1 9 14 21 18 15 16 12 18 12
344 68 54 77 154 75 15 57 202 223 205 213 270 288 275 265 285 299 152 149 153 290 304 296 343 329 29 66 155 122 152 269 352 352 359 354 276 233 33 25 22 18 6
353 333 328 6 333 64 61 32 289 284 270 249 221 239 293 313 335 346 325 325 144 177 261 276 283 292 346 353 313 257 179 219 204 352 14 320 312 305 254 273 340 5 6
336 344 349 22 19 355 358 14 306 300 284 292 309 243 240 273 12 340 343 352 317 167 264 288 308 310 345 339 321 289 218 183 182 192 225 277 253 250 257 279 351 7 2
255 270 1 24 37 7 354 8 322 319 281 267 285 303 291 326 166 262 359 320 295 288 219 286 302 304 282 284 285 292 260 185 196 216 222 238 238 244 248 254 270 301 329
311 296 134 80 30 337 339 343 315 299 286 265 241 248 279 357 9 24 340 305 301 323 285 282 293 296 286 312 345 321 308 280 236 233 225 235 234 240 248 249 246 253 281
299 275 204 165 230 265 11 351 332 313 304 290 241 190 195 174 190 215 269 281 297 311 299 290 289 300 300 302 13 338 314 303 276 274 266 246 235 234 244 241 241 237 252
299 300 277 238 234 173 26 7 327 320 306 301 296 227 178 139 102 149 219 251 269 271 274 273 281 318 316 322 308 293 301 295 280 267 288 263 242 241 235 236 238 238 238
315 322 306 274 300 27 31 14 350 309 302 305 309 305 258 153 6 278 252 262 256 244 254 253 270 267 288 290 284 296 299 310 296 294 314 277 241 244 237 227 232 229 239
299 295 298 293 128 92 39 352 340 305 291 310 324 318 317 352 34 312 283 267 279 275 259 237 237 248 253 261 273 274 266 260 261 263 280 276 271 259 257 243 228 232 238
279 274 286 307 25 301 304 325 325 304 301 331 326 315 317 338 4 357 326 312 289 296 281 268 241 247 253 242 233 245 254 274 282 276 194 260 267 263 272 257 234 232 234
282 261 255 268 231 233 257 310 327 277 289 300 320 351 357 8 346 348 325 287 297 298 305 311 309 300 292 288 275 273 274 259 274 271 259 243 269 281 270 256 251 234 229
274 279 283 268 251 195 351 354 328 273 294 307 322 4 19 5 352 343 290 255 275 285 300 308 311 311 303 289 280 235 226 235 253 266 259 231 264 313 295 273 279 285 256